Terug naar catalogus

DELTA 1 DEB

ActiefPO
NORAD 7849·DEBRIS·🇺🇸 United States

Gelanceerd Jul 23, 1972 vanaf Vandenberg Space Force Base

Loading…

Volgende Passages (komende 24 uur)

TLE

VersSource: Space-Track

Epoch: Sep 14, 2026, 22:18 UTC

1 07849U 72058V   26257.92927233  .00001536  00000-0  64811-3 0  9997
2 07849  98.0453 331.4195 0319286 158.1419 203.3731 14.02817969565791

Volg DELTA 1 DEB in realtime met AllMySat

Download on the App Store